Location: Paderno d�Adda
(45.6667°N, 9.4333°E)
Time: 00:42:39
(UTC+00:00)

ATLAS 2AS CENTAUR R/B - Pass Details

Date: 19 September 2020
Orbit: 939 x 1273 km, 63.7° (Epoch: 19 October)

Event Time Altitude Azimuth Distance (km) Brightness Sun altitude
Rises 18:28:30 0° 162° (SSE) 4,175 5.5 -11.8°
Reaches altitude 10° 18:32:14 10° 146° (SE) 3,240 4.8 -12.4°
Maximum altitude 18:37:18 19° 105° (ESE) 2,647 4.1 -13.3°
Drops below altitude 10° 18:42:24 10° 65° (ENE) 3,264 4.8 -14.1°
Sets 18:46:09 0° 49° (NE) 4,216 5.5 -14.8°
